Regional Weather Roundup
Issued by NWS

Home | Current Version | Previous Version | Text Only | Print | Product List | Glossary Off
Versions: 1 2 3 4 5 6 7 8 9 10 11 12 13 14 15 16 17 18 19 20 21 22 23 24 25 26 27 28 29 30 31 32 33 34 35 36 37 38 39 40 41 42 43 44 45 46 47 48 49 50

000
ASUS43 KFSD 181202
RWRSD

WEATHER ROUNDUP FOR SOUTH DAKOTA
NATIONAL WEATHER SERVICE SIOUX FALLS SD
600 AM CST THU JAN 18 2018

NOTE: "FAIR" INDICATES FEW OR NO CLOUDS BELOW 12,000 FEET WITH NO
SIGNIFICANT WEATHER AND/OR OBSTRUCTIONS TO VISIBILITY.


SDZ001>005-009-010-012>017-181300-
NORTHWEST AND NORTH CENTRAL SOUTH DAKOTA

CITY           SKY/WX    TMP DP  RH WIND       PRES   REMARKS
BUFFALO          N/A     37  22  54 W14       29.80F
FAITH            N/A     30  20  66 SW12      29.86F WCI  20
MOBRIDGE       PTCLDY    21  17  84 SE6       29.84F WCI  13
$$

SDZ012>016-024>037-041>051-057-063-072>074-181300-
SOUTHWEST AND SOUTH CENTRAL SOUTH DAKOTA

CITY           SKY/WX    TMP DP  RH WIND       PRES   REMARKS
RAPID CTY ARPT MOCLDY    29  17  61 NW6       29.90F WCI  23
PIERRE         PTCLDY    25  20  81 SW9       29.89F WCI  15
CUSTER         MOCLDY    36   6  28 NW5       29.96F
ELLSWORTH AFB  MOCLDY    33  17  51 W6        29.89F WCI  28
PHILIP         MOCLDY    27  22  81 W13       29.92F WCI  16
PINE RIDGE     PTCLDY    23  17  78 W7        29.97F WCI  15
SPEARFISH        N/A     41  14  33 CALM      29.92F
WINNER         FAIR      31  21  66 SW9       29.93F WCI  23
$$

SDZ004>011-016>023-039-040-181300-
NORTHEAST SOUTH DAKOTA

CITY           SKY/WX    TMP DP  RH WIND       PRES   REMARKS
ABERDEEN       CLEAR     17  14  88 S7        29.88F WCI   8
WATERTOWN      CLOUDY    17  15  92 S6        29.88F WCI   9
BROOKINGS      CLOUDY    16  14  92 S6        29.93F WCI   7
SISSETON         N/A     36  22  56 W25G33    29.80F
$$

SDZ017-020-022-023-036>040-048>070-181300-
SOUTHEAST SOUTH DAKOTA

CITY           SKY/WX    TMP DP  RH WIND       PRES   REMARKS
SIOUX FALLS    CLOUDY    13  12  96 CALM      29.98F
HURON          CLEAR     20  17  88 S9        29.93F WCI   9
CHAMBERLAIN    CLEAR     26  22  85 SW5       29.93F WCI  20
MITCHELL       CLEAR     17  14  88 SE7       29.95F WCI   8
YANKTON        CLOUDY    19  16  88 S6        29.99F WCI  11
$$

ABBREVIATIONS USED IN REMARKS
   TC - TEMPERATURE IN CELSIUS
  WCI - WIND CHILL INDEX
   HX - HEAT INDEX
  VSB - VISIBILITY




USA.gov is the U.S. government's official web portal to all federal, state and local government web resources and services.